Date String (YYYY-MM-DD hh:mm:ss) UTC,Instrument flags,Ambient pressure (hPa),Sample flow (lpm),Bypass flow (lpm),Sample temperature (°C),Ambient temperature (°C),ASC tube jacket temperature (°C),LED temperature (°C),Box temperature (°C),Sample RH (%),Span deviation,Mass concentration (μg/m³),Mass concentration (μg/m³),Mass concentration (μg/m³)
DateTimeUTC,F1_M11,P_M11,Q1_M11,Q2_M11,T1_M11,T2_M11,T3_M11,T4_M11,T5_M11,U1_M11,ZSPAN_M11,X0_M11,X2_M11,X1_M11
2021-10-21 08:00:00,,0831.1,4.99,0.00,26.2,25.4,00.0,35.3,28.0,14.2,0000.3,0012.99,0004.14,0003.41
2021-10-21 08:01:00,,0831.2,5.00,0.00,26.3,25.4,00.0,35.4,28.1,14.1,-000.6,0012.85,0004.15,0003.42
2021-10-21 08:02:00,,0831.2,4.99,0.00,26.2,25.4,00.0,35.4,28.1,14.0,-001.1,0012.38,0004.17,0003.42
2021-10-21 08:03:00,,0831.2,4.99,0.00,26.2,25.3,00.0,35.3,28.0,14.1,-000.3,0013.87,0004.16,0003.41
2021-10-21 08:04:00,,0831.1,5.00,0.00,26.2,25.3,00.0,35.3,28.0,14.0,0000.4,0014.15,0004.15,0003.40
2021-10-21 08:05:00,,0831.1,5.00,0.00,26.2,25.3,00.0,35.3,28.0,14.1,0000.6,0013.98,0004.15,0003.39
2021-10-21 08:06:00,,0831.2,5.00,0.00,26.2,25.3,00.0,35.3,28.0,14.1,-000.1,0013.94,0004.19,0003.39
2021-10-21 08:07:00,,0831.2,4.99,0.00,26.2,25.3,00.0,35.3,28.0,14.2,0000.9,0013.69,0004.17,0003.38
2021-10-21 08:08:00,,0831.2,5.01,0.00,26.2,25.3,00.0,35.3,28.0,14.2,0002.9,0013.05,0004.14,0003.39
2021-10-21 08:09:00,,0831.2,5.00,0.00,26.2,25.3,00.0,35.3,28.0,14.2,0000.0,0013.26,0004.12,0003.39
2021-10-21 08:10:00,,0831.2,5.00,0.00,26.2,25.3,00.0,35.3,28.0,14.3,0000.0,0013.01,0004.10,0003.39
2021-10-21 08:11:00,,0831.2,4.99,0.00,26.2,25.3,00.0,35.3,28.0,14.3,0000.0,0012.90,0004.11,0003.38
2021-10-21 08:12:00,,0831.2,5.00,0.00,26.2,25.3,00.0,35.3,28.0,14.3,0000.0,0012.39,0004.11,0003.38
2021-10-21 08:13:00,,0831.1,4.99,0.00,26.2,25.4,00.0,35.3,28.0,14.3,0000.0,0012.43,0004.13,0003.38
2021-10-21 08:14:00,,0831.2,5.01,0.00,26.2,25.4,00.0,35.3,28.0,14.3,0000.9,0010.52,0004.12,0003.39
2021-10-21 08:15:00,,0831.2,5.00,0.00,26.2,25.4,00.0,35.3,28.1,14.3,0003.6,0009.84,0004.14,0003.39
2021-10-21 08:16:00,,0831.2,5.00,0.00,26.2,25.4,00.0,35.3,28.1,14.2,0003.1,0010.35,0004.10,0003.39
2021-10-21 08:17:00,,0831.2,5.00,0.00,26.2,25.4,00.0,35.3,28.1,14.2,0003.3,0010.23,0004.03,0003.40
2021-10-21 08:18:00,,0831.2,5.01,0.00,26.2,25.4,00.0,35.3,28.1,14.2,0002.7,0010.19,0004.01,0003.40
2021-10-21 08:19:00,,0831.2,4.99,0.00,26.2,25.3,00.0,35.3,28.1,14.2,0002.3,0009.24,0003.99,0003.40
2021-10-21 08:20:00,,0831.2,5.00,0.00,26.2,25.3,00.0,35.3,28.1,14.2,0003.4,0008.73,0004.00,0003.41
2021-10-21 08:21:00,,0831.2,5.01,0.00,26.2,25.3,00.0,35.3,28.1,14.2,0003.5,0009.30,0004.06,0003.41
2021-10-21 08:22:00,,0831.2,5.01,0.00,26.2,25.4,00.0,35.3,28.1,14.2,0001.9,0009.39,0004.06,0003.40
2021-10-21 08:23:00,,0831.2,4.99,0.00,26.3,25.4,00.0,35.3,28.1,14.2,0002.0,0009.29,0004.04,0003.40
2021-10-21 08:24:00,,0831.2,5.00,0.00,26.3,25.4,00.0,35.3,28.1,14.1,0002.3,0009.27,0004.02,0003.39
2021-10-21 08:25:00,,0831.2,5.01,0.00,26.2,25.4,00.0,35.3,28.0,14.1,0002.8,0009.41,0004.02,0003.38
2021-10-21 08:26:00,,0831.2,4.99,0.00,26.2,25.3,00.0,35.3,28.0,14.0,0003.3,0009.75,0003.99,0003.37
2021-10-21 08:27:00,,0831.3,5.01,0.00,26.2,25.2,00.0,35.3,27.9,14.0,0003.7,0009.30,0004.01,0003.37
2021-10-21 08:28:00,,0831.4,5.00,0.00,26.1,25.2,00.0,35.3,27.9,14.1,0003.7,0009.53,0003.98,0003.36
2021-10-21 08:29:00,,0831.3,5.00,0.00,26.1,25.2,00.0,35.2,27.9,14.1,0002.6,0010.50,0003.99,0003.35
2021-10-21 08:30:00,,0831.1,5.00,0.00,26.1,25.1,00.0,35.2,27.9,14.1,0000.5,0010.74,0004.02,0003.35
2021-10-21 08:31:00,,0831.2,5.00,0.00,26.0,25.1,00.0,35.2,27.9,14.2,0000.0,0011.49,0004.03,0003.35
2021-10-21 08:32:00,,0831.2,5.02,0.00,26.0,25.1,00.0,35.2,27.9,14.2,0000.0,0011.55,0004.00,0003.35
2021-10-21 08:33:00,,0831.2,4.99,0.00,26.0,25.1,00.0,35.2,27.8,14.2,0000.0,0011.25,0003.98,0003.35
2021-10-21 08:34:00,,0831.2,5.00,0.00,26.0,25.1,00.0,35.2,27.8,14.2,0000.0,0011.46,0004.02,0003.35
2021-10-21 08:35:00,,0831.2,5.01,0.00,26.0,25.2,00.0,35.2,27.8,14.2,0000.0,0011.56,0004.05,0003.36
2021-10-21 08:36:00,,0831.2,5.01,0.00,26.1,25.2,00.0,35.2,27.9,14.1,0000.0,0012.62,0004.06,0003.37
2021-10-21 08:37:00,,0831.2,4.98,0.00,26.1,25.2,00.0,35.2,27.9,14.1,0000.0,0012.44,0004.09,0003.37
2021-10-21 08:38:00,,0831.2,5.00,0.00,26.1,25.2,00.0,35.2,27.9,14.1,0000.0,0012.48,0004.07,0003.38
2021-10-21 08:39:00,,0831.2,5.01,0.00,26.1,25.1,00.0,35.2,27.9,14.1,0000.0,0012.46,0004.14,0003.39
2021-10-21 08:40:00,,0831.2,4.99,0.00,26.0,25.1,00.0,35.1,27.8,14.2,0000.0,0011.49,0004.15,0003.39
2021-10-21 08:41:00,,0831.2,5.00,0.00,26.0,25.1,00.0,35.1,27.7,14.3,0000.0,0011.24,0004.14,0003.40
2021-10-21 08:42:00,,0831.2,5.00,0.00,25.9,25.0,00.0,35.1,27.6,14.3,0000.0,0010.44,0004.12,0003.40
2021-10-21 08:43:00,,0831.2,5.00,0.00,25.8,24.9,00.0,35.1,27.5,14.4,0000.0,0010.39,0004.16,0003.41
2021-10-21 08:44:00,,0831.2,5.01,0.00,25.8,24.9,00.0,35.1,27.5,14.5,0000.3,0011.03,0004.20,0003.42
2021-10-21 08:45:00,,0831.2,5.00,0.00,25.8,24.9,00.0,35.0,27.5,14.5,0000.4,0011.05,0004.21,0003.43
2021-10-21 08:46:00,,0831.2,4.99,0.00,25.8,24.9,00.0,35.0,27.5,14.5,0000.3,0011.01,0004.20,0003.42
2021-10-21 08:47:00,,0831.1,5.00,0.00,25.8,24.9,00.0,35.0,27.6,14.5,0000.1,0009.99,0004.20,0003.42
2021-10-21 08:48:00,,0831.2,5.01,0.00,25.8,24.9,00.0,35.0,27.6,14.5,0000.0,0010.03,0004.22,0003.42
2021-10-21 08:49:00,,0831.2,4.99,0.00,25.8,24.9,00.0,35.0,27.6,14.5,0000.0,0010.72,0004.23,0003.43
2021-10-21 08:50:00,,0831.2,5.00,0.00,25.8,24.9,00.0,35.0,27.6,14.5,0000.0,0010.65,0004.19,0003.43
2021-10-21 08:51:00,,0831.2,5.02,0.00,25.8,24.9,00.0,34.9,27.6,14.5,0000.0,0010.70,0004.18,0003.43
2021-10-21 08:52:00,,0831.2,5.00,0.00,25.7,24.8,00.0,34.9,27.5,14.6,0000.0,0010.99,0004.17,0003.43
2021-10-21 08:53:00,,0831.2,4.99,0.00,25.7,24.8,00.0,34.9,27.4,14.7,0000.0,0011.19,0004.20,0003.44
2021-10-21 08:54:00,,0831.2,5.00,0.00,25.6,24.8,00.0,34.9,27.4,14.7,0000.0,0011.02,0004.16,0003.44
2021-10-21 08:55:00,,0831.2,5.01,0.00,25.6,24.8,00.0,34.8,27.4,14.8,0000.0,0010.48,0004.14,0003.44
2021-10-21 08:56:00,,0831.2,4.99,0.00,25.6,24.8,00.0,34.8,27.4,14.7,0000.0,0010.87,0004.12,0003.45
2021-10-21 08:57:00,,0831.2,5.01,0.00,25.6,24.8,00.0,34.8,27.4,14.7,0000.0,0011.60,0004.11,0003.46
2021-10-21 08:58:00,,0831.3,5.00,0.00,25.6,24.8,00.0,34.8,27.4,14.7,0000.0,0011.91,0004.15,0003.48
2021-10-21 08:59:00,,0831.3,5.00,0.00,25.6,24.8,00.0,34.8,27.4,14.7,0000.0,0011.52,0004.16,0003.47
